This demonstration page uses our WeatherBlox Daily Observations layout. Learn more.

Left ArrowRight Arrow

36.17497, -115.13722

Hourly Observations for February 6, 2020

Temp ( °F °C ) Dew Point ( °F °C ) Humidity (%) Winds ( mph kmh ) Pressure ( in mb ) Visibility ( mi km ) Precip ( " mm )
12:53 am 00:53 Clear 39 3.9 15 -9.4 38 38 W 3 6 30.15 1021 10 16.0934 0 0
1:53 am 01:53 Clear 38 3.3 15 -9.4 39 39 WNW 5 7 30.15 1021 10 16.0934 0 0
2:53 am 02:53 Clear 38 3.3 16 -8.9 41 41 NW 5 7 30.15 1021 10 16.0934 0 0
3:53 am 03:53 Clear 38 3.3 15 -9.4 39 39 W 6 9 30.14 1021 10 16.0934 0 0
4:53 am 04:53 Clear 36 2.2 14 -10 40 40 E 3 6 30.14 1021 10 16.0934 0 0
5:53 am 05:53 Clear 38 3.3 13 -10.6 36 36 VRB 5 7 30.16 1022 10 16.0934 0 0
6:53 am 06:53 Sunny 37 2.8 15 -9.4 41 41 WSW 6 9 30.17 1022 10 16.0934 0 0
7:53 am 07:53 Sunny 41 5 16 -8.9 36 36 SE 6 9 30.18 1022 10 16.0934 0 0
8:53 am 08:53 Sunny 45 7.2 16 -8.9 31 31 ESE 8 13 30.19 1022 10 16.0934 0 0
9:53 am 09:53 Sunny 48 8.9 16 -8.9 28 28 Calm 30.18 1022 10 16.0934 0 0
10:53 am 10:53 Sunny 52 11.1 18 -7.8 26 26 SE 3 6 30.15 1021 10 16.0934 0 0
11:53 am 11:53 Sunny 55 12.8 20 -6.7 25 25 S 3 6 30.11 1020 10 16.0934 0 0
12:53 pm 12:53 Sunny 59 15 22 -5.6 24 24 ESE 7 11 30.06 1018 10 16.0934 0 0
1:53 pm 13:53 Sunny 61 16.1 23 -5 23 23 E 7 11 30.04 1017 10 16.0934 0 0
2:53 pm 14:53 Sunny 61 16.1 24 -4.4 24 24 ESE 5 7 30.02 1017 10 16.0934 0 0
3:53 pm 15:53 Sunny 62 16.7 24 -4.4 23 23 ENE 3 6 30.03 1017 10 16.0934 0 0
4:53 pm 16:53 Sunny 61 16.1 25 -3.9 25 25 SSE 5 7 30.02 1017 10 16.0934 0 0
5:53 pm 17:53 Clear 58 14.4 25 -3.9 28 28 Calm 30.03 1017 10 16.0934 0 0
6:53 pm 18:53 Clear 56 13.3 26 -3.3 32 32 N 5 7 30.04 1017 10 16.0934 0 0
7:53 pm 19:53 Clear 53 11.7 26 -3.3 35 35 NW 5 7 30.06 1018 10 16.0934 0 0
8:53 pm 20:53 Clear 50 10 26 -3.3 39 39 NW 5 7 30.06 1018 10 16.0934 0 0
9:53 pm 21:53 Clear 48 8.9 26 -3.3 42 42 W 6 9 30.08 1019 10 16.0934 0 0
10:53 pm 22:53 Clear 47 8.3 26 -3.3 44 44 WNW 6 9 30.08 1019 10 16.0934 0 0
11:53 pm 23:53 Clear 45 7.2 26 -3.3 48 48 Calm 30.09 1019 10 16.0934 0 0

Powered by AerisWeather